This demonstration page uses our WeatherBlox Daily Observations layout. Learn more.

Left ArrowRight Arrow

Hourly Observations for October 18, 2015

Temp ( °F °C ) Dew Point ( °F °C ) Humidity (%) Winds ( mph kmh ) Pressure ( in mb ) Visibility ( mi km ) Precip ( " mm )
12:15 am 00:15 Clear 45 7 27 -3 49 49 SSE 9 15 30.27 1025 10 16 0.00 0.00
12:35 am 00:35 Clear 45 7 27 -3 49 49 SSE 10 17 30.27 1025 10 16 0.00 0.00
12:55 am 00:55 Clear 45 7 27 -3 49 49 SSE 9 15 30.27 1025 10 16 0.00 0.00
1:15 am 01:15 Clear 45 7 27 -3 49 49 SSE 12 19 30.27 1025 10 16 0.00 0.00
1:35 am 01:35 Clear 43 6 27 -3 53 53 SSE 10 17 30.30 1026 10 16 0.00 0.00
1:55 am 01:55 Clear 43 6 27 -3 53 53 SSE 10 17 30.30 1026 10 16 0.00 0.00
2:15 am 02:15 Clear 43 6 27 -3 53 53 SE 10 17 30.30 1026 10 16 0.00 0.00
2:35 am 02:35 Clear 43 6 27 -3 53 53 SSE 10 17 30.27 1025 10 16 0.00 0.00
2:55 am 02:55 Clear 45 7 28 -2 53 53 SE 12 19 30.24 1024 10 16 0.00 0.00
3:15 am 03:15 Clear 45 7 28 -2 53 53 SE 12 19 30.24 1024 10 16 0.00 0.00
3:35 am 03:35 Clear 45 7 28 -2 53 53 SE 12 19 30.24 1024 10 16 0.00 0.00
3:55 am 03:55 Clear 45 7 28 -2 53 53 SE 10 17 30.24 1024 10 16 0.00 0.00
4:15 am 04:15 Clear 43 6 28 -2 57 57 SSE 12 19 30.27 1025 10 16 0.00 0.00
4:35 am 04:35 Clear 43 6 28 -2 57 57 SSE 12 19 30.24 1024 10 16 0.00 0.00
4:55 am 04:55 Clear 43 6 28 -2 57 57 SE 12 19 30.24 1024 10 16 0.00 0.00
5:15 am 05:15 Clear 43 6 28 -2 57 57 SE 12 19 30.24 1024 10 16 0.00 0.00
5:35 am 05:35 Clear 43 6 28 -2 57 57 SE 12 19 30.24 1024 10 16 0.00 0.00
5:55 am 05:55 Clear 43 6 28 -2 57 57 SE 12 19 30.24 1024 10 16 0.00 0.00
6:15 am 06:15 Clear 43 6 28 -2 57 57 SSE 12 19 30.24 1024 10 16 0.00 0.00
6:35 am 06:35 Clear 43 6 28 -2 57 57 SSE 12 19 30.24 1024 10 16 0.00 0.00
6:55 am 06:55 Clear 43 6 28 -2 57 57 SSE 14 22 30.24 1024 10 16 0.00 0.00
7:15 am 07:15 Clear 43 6 28 -2 57 57 SSE 13 20 30.24 1024 10 16 0.00 0.00
7:35 am 07:35 Clear 43 6 30 -1 61 61 SSE 10 17 30.24 1024 10 16 0.00 0.00
7:55 am 07:55 Sunny 43 6 30 -1 61 61 SSE 8 13 30.24 1024 10 16 0.00 0.00
8:15 am 08:15 Sunny 43 6 30 -1 61 61 SSE 10 17 30.24 1024 10 16 0.00 0.00
8:35 am 08:35 Sunny 45 7 30 -1 57 57 SSE 9 15 30.21 1023 10 16 0.00 0.00
8:55 am 08:55 Mostly Cloudy 46 8 30 -1 53 53 SSE 13 20 30.18 1022 1 1 0.00 0.00
9:15 am 09:15 Mostly Cloudy 48 9 32 0 54 54 SSE 10 17 30.18 1022 1 1 0.00 0.00
9:35 am 09:35 Sunny 50 10 34 1 54 54 S 14 22 30.15 1021 10 16 0.00 0.00
9:55 am 09:55 Sunny 52 11 34 1 50 50 S 18 30 30.15 1021 10 16 0.00 0.00
10:15 am 10:15 Sunny 54 12 36 2 51 51 S 18 30 30.15 1021 10 16 0.00 0.00
10:35 am 10:35 Sunny 55 13 36 2 47 47 S 20 31 30.15 1021 10 16 0.00 0.00
10:55 am 10:55 Sunny 57 14 37 3 48 48 S 18 30 30.12 1020 10 16 0.00 0.00
11:15 am 11:15 Sunny 61 16 37 3 42 42 S 21 33 30.09 1019 10 16 0.00 0.00
11:35 am 11:35 Sunny 63 17 37 3 39 39 SSE 24 39 30.06 1018 10 16 0.00 0.00
11:55 am 11:55 Sunny 64 18 39 4 40 40 SSE 23 37 30.06 1018 10 16 0.00 0.00
12:15 pm 12:15 Sunny 66 19 39 4 37 37 SSE 20 31 30.06 1018 10 16 0.00 0.00
12:35 pm 12:35 Sunny 66 19 39 4 37 37 SE 20 31 30.03 1017 10 16 0.00 0.00
12:55 pm 12:55 Sunny 70 21 39 4 33 33 S 20 31 30.00 1016 10 16 0.00 0.00
1:15 pm 13:15 Sunny 72 22 43 6 36 36 SSE 22 35 30.00 1016 10 16 0.00 0.00
1:35 pm 13:35 Sunny 73 23 43 6 33 33 S 21 33 29.97 1015 10 16 0.00 0.00
1:55 pm 13:55 Sunny 73 23 43 6 33 33 SE 21 33 29.97 1015 10 16 0.00 0.00
2:15 pm 14:15 Sunny 75 24 43 6 31 31 SSE 26 43 29.91 1013 10 16 0.00 0.00
2:35 pm 14:35 Sunny 75 24 43 6 31 31 SE 24 39 29.91 1013 10 16 0.00 0.00
2:55 pm 14:55 Sunny 79 26 43 6 28 28 SE 20 31 29.91 1013 10 16 0.00 0.00
3:15 pm 15:15 Sunny 79 26 45 7 30 30 ESE 23 37 29.88 1012 10 16 0.00 0.00
3:35 pm 15:35 Sunny 81 27 45 7 28 28 ESE 20 31 29.88 1012 10 16 0.00 0.00
3:55 pm 15:55 Sunny 81 27 45 7 28 28 SSE 23 37 29.83 1010 10 16 0.00 0.00
4:15 pm 16:15 Sunny 81 27 45 7 28 28 SE 26 43 29.83 1010 10 16 0.00 0.00
4:35 pm 16:35 Sunny 81 27 45 7 28 28 SSE 23 37 29.83 1010 10 16 0.00 0.00
4:55 pm 16:55 Sunny 79 26 46 8 32 32 SE 23 37 29.83 1010 10 16 0.00 0.00
5:15 pm 17:15 Sunny 79 26 46 8 32 32 SSE 24 39 29.83 1010 10 16 0.00 0.00
5:35 pm 17:35 Sunny 79 26 45 7 30 30 SSE 20 31 29.83 1010 10 16 0.00 0.00
5:55 pm 17:55 Sunny 79 26 45 7 30 30 SSE 29 46 29.83 1010 10 16 0.00 0.00
6:15 pm 18:15 Sunny 79 26 43 6 28 28 SSE 22 35 29.83 1010 10 16 0.00 0.00
6:35 pm 18:35 Sunny 79 26 43 6 28 28 SSE 22 35 29.83 1010 10 16 0.00 0.00
6:55 pm 18:55 Clear 77 25 43 6 30 30 SE 16 26 29.83 1010 10 16 0.00 0.00
7:15 pm 19:15 Clear 75 24 43 6 31 31 SE 17 28 29.83 1010 10 16 0.00 0.00
7:35 pm 19:35 Clear 73 23 43 6 33 33 ESE 18 30 29.83 1010 10 16 0.00 0.00
7:55 pm 19:55 Clear 73 23 43 6 33 33 E 17 28 29.83 1010 10 16 0.00 0.00
8:15 pm 20:15 Clear 73 23 43 6 33 33 ESE 16 26 29.85 1011 10 16 0.00 0.00
8:35 pm 20:35 Clear 73 23 45 7 36 36 ESE 17 28 29.85 1011 10 16 0.00 0.00
8:55 pm 20:55 Clear 72 22 45 7 38 38 SSE 18 30 29.88 1012 10 16 0.00 0.00
9:15 pm 21:15 Clear 72 22 45 7 38 38 ESE 18 30 29.88 1012 10 16 0.00 0.00
9:35 pm 21:35 Clear 72 22 45 7 38 38 SE 22 35 29.88 1012 10 16 0.00 0.00
9:55 pm 21:55 Clear 70 21 45 7 40 40 SE 20 31 29.88 1012 10 16 0.00 0.00
10:15 pm 22:15 Clear 70 21 45 7 40 40 SE 23 37 29.88 1012 10 16 0.00 0.00
10:35 pm 22:35 Clear 70 21 45 7 40 40 SE 23 37 29.88 1012 10 16 0.00 0.00
10:55 pm 22:55 Clear 70 21 45 7 40 40 E 21 33 29.88 1012 10 16 0.00 0.00
11:15 pm 23:15 Clear 70 21 45 7 40 40 S 25 41 29.88 1012 10 16 0.00 0.00
11:35 pm 23:35 Clear 68 20 43 6 40 40 SSE 21 33 29.88 1012 10 16 0.00 0.00
11:55 pm 23:55 Clear 66 19 43 6 43 43 ESE 22 35 29.91 1013 10 16 0.00 0.00

Powered by AerisWeather